Location: Sandhurst
(51.0167°N, 0.5667°E)
Time: 15:08:52
(UTC+00:00)

Daily predictions for brighter satellites

Satellite Brightness Start Highest point End
(mag) Time Altitude Azimuth Time Altitude Azimuth Time Altitude Azimuth
NOSS 2-2 (C) 4.2 16:24:40 10° NW 16:29:27 66° NE 16:36:07 10° SE
Cosmos 1818 4.2 16:25:17 10° NW 16:30:21 36° NNE 16:35:23 10° E
Cosmos 2034 Rocket 4.1 16:24:57 10° S 16:30:58 59° E 16:37:01 10° NNE
FengYun 1-2 T 4.4 16:25:59 10° SE 16:31:22 52° ENE 16:36:43 10° N
SL-16 R/B 3.4 16:27:16 10° NNW 16:31:38 22° NE 16:36:00 10° E
CZ-4B R/B 2.9 16:27:56 10° SSE 16:31:47 53° ENE 16:35:28 10° N
Iridium 2 4.4 16:28:17 10° NNW 16:32:00 57° W 16:35:39 10° S
Cosmos 1408 Rocket 3.8 16:30:11 10° NNW 16:34:32 75° W 16:38:56 10° S
ADEOS 3.9 16:30:39 10° S 16:35:52 76° WSW 16:41:08 10° NNW
Cosmos 2082 Rocket 3.3 16:33:14 10° SSE 16:37:50 26° ESE 16:42:28 10° NE
USA 267 3.9 16:32:47 10° ENE 16:38:58 43° SE 16:45:08 10° SSW
SMAP 3.3 16:37:54 10° SE 16:42:21 47° ENE 16:46:49 10° N
Cosmos 1743 Rocket 3.5 16:40:21 10° N 16:44:42 78° ENE 16:49:02 10° SSE
Cosmos 2333 Rocket 4.0 16:43:16 10° N 16:46:06 14° NNE 16:48:55 10° NE
Meteor 1-25 Rocket 4.2 16:40:41 10° N 16:46:16 73° ENE 16:51:52 10° SSE
Cosmos 2278 3.9 16:42:24 10° NNW 16:47:57 48° NE 16:53:26 10° SE
Cosmos 1763 Rocket 3.5 16:43:18 10° SSW 16:48:20 70° ESE 16:53:28 10° NNE
Cosmos 2026 Rocket 4.0 16:43:02 10° N 16:49:04 55° ENE 16:55:00 10° SSE
ARGOS 4.2 16:45:02 10° ESE 16:49:16 24° ENE 16:53:30 10° N
Cosmos 1602 3.8 16:45:52 10° N 16:49:41 56° ENE 16:53:30 10° SSE
Cosmos 1634 Rocket 4.4 16:44:00 10° SSE 16:49:52 42° E 16:55:45 10° NNE
SL-16 R/B 4.4 16:50:39 10° NNW 16:52:13 11° NNW 16:53:47 10° N
CZ-4B DEB 4.4 16:47:09 10° SE 16:52:25 49° ENE 16:57:41 10° N
Cosmos 44 Rocket 3.7 16:47:53 10° NNW 16:52:37 41° NE 16:57:11 10° ESE
SJ 16-02 4.4 16:50:14 10° WNW 16:53:00 17° W 16:55:45 10° SW
Cosmos 2195 Rocket 4.5 16:47:01 10° N 16:53:11 68° ENE 16:59:21 10° SSE
Cosmos 1833 Rocket 2.7 16:49:39 10° SSW 16:55:12 68° ESE 17:00:50 10° NNE
SeaSat 1 3.6 16:50:38 10° NNE 16:55:13 40° NW 16:59:49 10° WSW
Cosmos 1666 Rocket 4.2 16:51:52 10° N 16:55:53 32° ENE 16:59:52 10° SE
Cosmos 841 Rocket 4.0 16:52:01 10° S 16:56:47 40° ESE 17:01:34 10° NE
CZ-2C R/B 3.0 16:52:31 10° SSE 16:57:21 79° WSW 17:02:08 10° NNW
Okean O Rocket 2.8 16:55:45 10° ESE 16:59:11 22° ENE 17:02:37 10° N
USA 306 3.1 16:55:51 10° WNW 17:00:03 57° N 17:03:36 14° E
Cosmos 1937 Rocket 3.6 16:55:32 10° NNW 17:00:53 84° WSW 17:06:13 10° SSE
Cosmos 1809 Rocket 4.4 16:55:05 10° N 17:01:12 73° ENE 17:07:16 10° SSE
H-2A R/B 2.4 16:57:51 10° SE 17:02:36 41° ENE 17:07:17 10° N
Cosmos 2219 Rocket 4.0 17:00:03 10° N 17:02:45 13° NNE 17:04:47 11° NE
ISS -2.6 17:00:07 10° W 17:03:22 44° SSW 17:06:37 10° SE
Cosmos 1939 Rocket 2.8 16:59:39 10° SSE 17:03:45 76° ENE 17:07:49 10° N
COSMOS 2406 3.3 16:58:44 10° SSW 17:04:23 63° ESE 17:10:03 10° NE
ATLAS 2AS CENTAUR R/B 3.9 16:58:06 10° WNW 17:04:53 32° N 17:10:36 13° NE
Cosmos 1606 4.4 17:02:03 10° SW 17:05:30 34° WNW 17:09:01 10° N
Cosmos 372 Rocket 3.9 17:00:27 10° NNW 17:05:43 74° ENE 17:10:58 10° SSE
Cosmos 1125 Rocket 4.3 17:02:21 10° N 17:06:54 29° NE 17:11:26 10° ESE
CZ-2C R/B 3.7 17:03:00 10° NE 17:07:04 23° E 17:11:05 10° SE
Cosmos 1500 3.1 17:05:53 10° N 17:09:36 61° ENE 17:13:17 10° SSE
Cosmos 1500 Rocket 4.4 17:08:03 10° NNW 17:12:23 54° W 17:16:40 10° S
USA 234 3.4 17:07:51 10° ESE 17:14:25 83° SSW 17:20:59 10° WNW
Sich 1 2.9 17:12:53 10° N 17:17:13 84° E 17:21:32 10° S
Cosmos 1782 2.8 17:13:22 10° S 17:17:16 58° E 17:21:13 10° NNE
Cosmos 2221 4.0 17:13:37 10° SW 17:17:36 36° WNW 17:21:38 10° N
SL-08 R/B 3.8 17:14:00 10° N 17:18:39 60° WNW 17:23:13 10° SSW
CZ-2D R/B 3.3 17:15:26 10° SSE 17:19:09 52° ENE 17:22:53 10° N
USA 307 3.0 17:15:30 10° WNW 17:19:43 59° N 17:22:25 21° E
CZ-4B R/B 3.4 17:16:31 10° SE 17:21:38 47° ENE 17:26:43 10° N
ATLAS 5 CENTAUR R/B 2.7 17:14:52 10° NW 17:24:16 54° NNE 17:26:27 21° E
Cosmos 1805 Rocket 3.9 17:20:14 10° NNW 17:24:32 66° W 17:28:50 10° S
NOAA 6 4.2 17:19:33 10° SSE 17:24:41 79° WSW 17:29:51 10° NNW
SL-24 R/B - RUBIN 2 4.4 17:23:01 10° NW 17:27:29 53° SW 17:31:41 10° SSE
PAYLOAD B 4.2 17:22:14 10° SSE 17:27:48 72° ENE 17:33:24 10° NNW
ERBS 3.5 17:27:07 10° WNW 17:29:56 27° N 17:30:53 23° NNE
deb Chang Zheng 4 3.8 17:27:34 10° SE 17:31:41 45° ENE 17:35:48 10° N
Cosmos 2360 Rocket 3.1 17:30:55 10° NNW 17:35:45 27° NE 17:37:21 24° ENE
Cosmos 540 Rocket 3.5 17:31:18 10° SSW 17:36:25 81° WNW 17:41:13 12° NNE
Lacrosse 5 rocket 1.1 17:32:34 10° WNW 17:36:29 86° NNE 17:39:14 20° ESE
Cosmos 1666 2.5 17:34:58 10° N 17:38:42 72° ENE 17:42:24 10° SSE
ATLAS CENTAUR R/B 3.6 17:35:50 10° NW 17:38:46 17° NNW 17:41:01 13° NNE
USA 308 2.9 17:38:08 10° WNW 17:42:22 65° NNE 17:44:08 33° E
Meteor 2-16 Rocket 4.4 17:42:01 10° N 17:48:11 85° E 17:54:19 10° S
Meteor 1-11 Rocket 3.9 17:45:52 10° N 17:51:16 46° ENE 17:56:46 10° SE
COSMOS 2428 4.2 17:48:16 10° NNW 17:52:06 18° NNE 17:52:06 18° NNE
COSMOS 2455 2.8 17:46:30 10° SW 17:52:33 89° NW 17:56:39 22° NE
PSLV R/B 4.4 17:50:59 10° S 17:54:37 55° W 17:58:20 10° NNW
CZ-4 R/B 3.5 17:59:19 14° N 17:59:19 14° N 17:59:56 10° N
Cosmos 2322 Rocket 2.4 17:51:51 10° NNW 17:57:25 49° NE 18:00:16 27° ESE
Cosmos 1814 Rocket 3.9 17:52:35 10° SSW 17:57:47 77° ESE 18:00:57 24° NNE
Cosmos 921 Rocket 3.5 17:54:18 10° S 17:57:55 37° ESE 17:57:55 37° ESE
YAOGAN 3 4.4 17:54:32 10° SSE 17:58:52 69° ENE 18:03:13 10° N
Cosmos 1570 Rocket 3.9 17:53:42 10° SSW 17:58:54 69° ESE 18:01:47 27° NNE
Cosmos 2298 Rocket 3.9 17:55:29 10° NNW 18:00:51 73° ENE 18:06:10 10° SSE
SL-08 RB Rocket 3.8 17:56:28 10° SE 18:00:58 53° ENE 18:05:27 10° N
COSMO-SKYMED 1 2.6 17:59:54 36° NE 18:01:25 57° E 18:05:42 10° S
Cosmos 1980 Rocket 3.4 17:56:32 10° NW 18:01:53 44° WSW 18:07:11 10° S
CZ-4C R/B 3.4 17:55:40 10° NW 18:02:43 64° SW 18:10:59 10° SSE
Cosmos 1356 Rocket 3.7 18:00:39 10° N 18:04:07 45° NE 18:04:07 45° NE
Cosmos 1633 Rocket 3.3 18:01:49 10° NNW 18:06:10 68° W 18:10:31 10° S
Cosmos 1812 3.0 18:03:36 10° SSW 18:07:25 66° WNW 18:09:54 21° N
USA 305 2.8 18:03:36 10° WNW 18:07:52 80° NNE 18:08:38 58° E
Helios 1B 4.5 18:07:44 44° NE 18:08:56 64° ESE 18:13:14 10° S
Feng Yun 1-1 Rocket 4.3 18:06:26 10° SSE 18:12:17 65° ENE 18:18:03 10° NNW
YAOGAN 1 3.5 18:14:03 32° NNE 18:14:03 32° NNE 18:16:39 10° N
CZ-4 R/B 4.3 18:09:58 10° SSE 18:14:06 89° WSW 18:18:17 10° NNW
Cosmos 1818 3.9 18:08:51 10° NW 18:14:18 65° SW 18:19:41 10° SSE
Cosmos 1151 Rocket 3.3 18:10:09 10° SSW 18:14:28 68° WNW 18:17:49 17° N
Cosmos 2279 Rocket 4.0 18:08:59 10° SSW 18:15:12 80° W 18:21:27 10° N
SL-16 R/B 2.1 18:10:56 10° NNW 18:16:40 81° ENE 18:21:04 17° SE
Cosmos 2266 Rocket 3.9 18:10:29 10° N 18:16:53 77° ENE 18:23:19 10° SSE
Cosmos 2237 Rocket 4.2 18:15:56 10° N 18:17:59 14° NNE 18:17:59 14° NNE
Cosmos 2082 Rocket 2.5 18:15:53 10° SW 18:21:32 64° NW 18:24:53 25° NNE
USA 267 3.2 18:19:25 36° ENE 18:22:21 82° NNW 18:28:54 10° WSW
Landsat 5 4.0 18:25:10 43° SSE 18:25:10 43° SSE 18:27:59 10° S
NOAA 15 4.5 18:20:19 10° SSE 18:25:34 69° ENE 18:30:50 10° N
SKYMED 3 4.5 18:24:19 46° N 18:25:35 85° WNW 18:29:56 10° SSW
ARGOS 3.4 18:23:42 10° S 18:29:06 69° WSW 18:34:30 10° NNW
GEOS 3 Rocket 3.5 18:30:35 59° ESE 18:31:29 73° NE 18:36:40 10° NW
Cosmos 1933 Rocket 3.8 18:27:08 10° N 18:30:32 53° N 18:30:32 53° N
Cosmos 2333 Rocket 3.1 18:26:54 10° NNW 18:31:05 33° NNE 18:31:05 33° NNE
Meteor 2-15 4.3 18:26:08 10° S 18:32:15 88° ESE 18:38:23 10° N
Cosmos 44 Rocket 4.3 18:29:33 10° NW 18:34:13 44° WSW 18:38:14 13° S
Okean O Rocket 2.3 18:30:50 10° S 18:35:12 55° W 18:39:37 10° NNW
Cosmos 2208 Rocket 4.1 18:30:15 10° SSW 18:35:40 78° WNW 18:37:42 40° NNE
Cosmos 2150 Rocket 4.3 18:32:09 10° NNW 18:37:17 65° WSW 18:42:27 10° S
Cosmos 1470 Rocket 4.2 18:32:56 10° NNW 18:37:18 56° W 18:41:41 10° S
Cosmos 1328 Rocket 4.2 18:34:03 10° SSW 18:38:25 55° WNW 18:40:29 29° N
SL-16 R/B 4.4 18:37:37 10° N 18:38:38 11° N 18:38:38 11° N
ISS -0.6 18:38:37 10° WSW 18:39:31 11° SW 18:40:24 10° SSW
Cosmos 1833 Rocket 4.3 18:34:44 10° WSW 18:39:38 29° NW 18:43:03 17° N
USA 306 3.1 18:35:51 10° WNW 18:39:36 66° W 18:39:36 66° W
H-2A R/B 3.7 18:37:31 10° SSW 18:42:08 33° W 18:46:40 10° NNW
CZ-2C R/B 3.0 18:44:29 22° N 18:47:48 61° WNW 18:52:53 10° SSW
Cosmos 2219 Rocket 3.4 18:43:14 10° NNW 18:46:30 28° N 18:46:30 28° N
Cosmos 1125 Rocket 4.1 18:44:10 10° NNW 18:49:19 56° WSW 18:54:27 10° S
SKYMED 2 4.3 18:48:31 42° NNW 18:49:29 51° WNW 18:53:42 10° SW
USA 32 4.1 18:45:00 10° S 18:49:26 65° S 18:49:26 65° S
ATLAS CENTAUR R/B 2.9 18:48:29 10° W 18:54:28 45° NW 18:54:28 45° NW
NOSS 3-4 (A) 3.9 18:48:29 10° NW 18:54:58 51° NE 18:55:00 51° NE
NOSS 3-4 (C) 4.0 18:48:35 10° NW 18:55:04 51° NNE 18:55:05 51° NE
ATLAS 2AS CENTAUR R/B 3.5 18:50:58 10° NW 18:57:51 37° NNE 18:58:02 37° NNE
Meteor 1-27 Rocket 3.9 18:52:21 10° S 18:56:41 57° S 18:56:41 57° S
USA 307 4.0 18:55:30 10° WNW 18:58:27 42° W 18:58:27 42° W
Lacrosse 5 rocket 3.6 19:12:08 10° W 19:14:52 21° WSW 19:14:52 21° WSW
ATLAS CENTAUR R/B 4.2 19:16:18 10° NNW 19:17:07 13° NNW 19:17:07 13° NNW
Cosmos 2360 Rocket 2.7 19:14:39 10° NNW 19:19:09 56° NW 19:19:09 56° NW
COSMOS 2428 4.5 19:32:00 10° NNW 19:34:07 23° NNW 19:34:07 23° NNW
COSMOS 2455 4.3 19:34:04 10° W 19:39:17 29° NNW 19:39:49 29° NNW
Cosmos 2322 Rocket 3.5 19:36:12 10° NW 19:41:20 35° WSW 19:42:10 34° SW
SL-16 R/B 4.5 19:56:06 10° NW 20:00:07 20° W 20:03:05 14° SW
USA 267 4.1 20:06:46 44° NW 20:06:46 44° NW 20:11:26 10° W
Cosmos 2082 Rocket 4.4 20:02:51 10° WNW 20:06:45 19° NNW 20:06:45 19° NNW
Cosmos 2333 Rocket 4.3 20:11:09 10° NW 20:13:07 22° NW 20:13:07 22° NW
ATLAS 2AS CENTAUR R/B 4.5 20:42:26 10° NW 20:45:28 27° NW 20:45:28 27° NW
